Tracking 20623 objects as of 3-Apr-2020
HD Live streaming from Space Station
objects crossing your sky now

NATO 3C

Track NATO 3C now!
NATO 3C is classified as:


NORAD ID: 11115
Int'l Code: 1978-106A
Perigee: 36,277.5 km
Apogee: 36,326.8 km
Inclination: 13.2 °
Period: 1,462.1 minutes
Semi major axis: 42673 km
RCS: 7.0899 m2 (large)
Launch date: November 19, 1978
Source: North Atlantic Treaty Organization (NATO)
Launch site: AIR FORCE EASTERN TEST RANGE (AFETR)
aabbcc
Your satellite tracking list
Your tracking list is empty




NASA's NSSDC Master Catalog

Two Line Element Set (TLE):
1 11115U 78106A   20092.96015336 -.00000208 +00000-0 +00000-0 0  9998
2 11115 013.1543 332.7666 0005779 346.0003 208.9977 00.98485304632885
Source of the keplerian elements: AFSPC